| time (UTC) | temp C | wind direction | speed KPH | gust KPH | rain 1hr cm | rain 24hr cm | rain mn cm | humidity % | barometer mb |
| 20260503173951 | 15 | 204 | 20.9 | 22.5 | 0.00 | 0.00 | 0.00 | 34 | 1017.1 |
| 20260503173450 | 15 | 224 | 8.0 | 30.6 | 0.00 | 0.00 | 0.00 | 36 | 1017.4 |
| 20260503172950 | 15 | 246 | 16.1 | 27.4 | 0.00 | 0.00 | 0.00 | 36 | 1017.4 |
| 20260503172449 | 14 | 231 | 16.1 | 32.2 | 0.00 | 0.00 | 0.00 | 36 | 1017.5 |
| 20260503171949 | 15 | 242 | 14.5 | 38.6 | 0.00 | 0.00 | 0.00 | 37 | 1017.7 |
| 20260503171448 | 14 | 225 | 17.7 | 33.8 | 0.00 | 0.00 | 0.00 | 36 | 1017.7 |
| 20260503170948 | 14 | 208 | 20.9 | 29.0 | 0.00 | 0.00 | 0.00 | 36 | 1017.9 |
| 20260503170447 | 14 | 228 | 12.9 | 24.1 | 0.00 | 0.00 | 0.00 | 35 | 1017.8 |
| 20260503150935 | 11 | 212 | 17.7 | 20.9 | 0.00 | 0.00 | 0.00 | 49 | 1019.4 |
| 20260503150435 | 11 | 252 | 16.1 | 27.4 | 0.00 | 0.00 | 0.00 | 50 | 1019.4 |
| 20260503130922 | 7 | 242 | 12.9 | 16.1 | 0.00 | 0.00 | 0.00 | 62 | 1019.5 |
| 20260503130421 | 7 | 256 | 8.0 | 22.5 | 0.00 | 0.00 | 0.00 | 64 | 1019.6 |
| 20260503110404 | 1 | 347 | 0.0 | 0.0 | 0.00 | 0.00 | 0.00 | 94 | 1019.1 |
| 20260503090347 | 2 | 347 | 0.0 | 0.0 | 0.00 | 0.00 | 0.00 | 94 | 1018.3 |
| 20260503081342 | 2 | 347 | 0.0 | 0.0 | 0.00 | 0.00 | 0.00 | 94 | 1018.2 |
| 20260503080840 | 2 | 347 | 0.0 | 0.0 | 0.00 | 0.00 | 0.00 | 94 | 1018.2 |
| 20260503080340 | 2 | 347 | 0.0 | 0.0 | 0.00 | 0.00 | 0.00 | 93 | 1018.2 |
| 20260503072836 | 2 | 347 | 0.0 | 0.0 | 0.00 | 0.00 | 0.00 | 92 | 1018.2 |
| 20260503072335 | 2 | 347 | 0.0 | 0.0 | 0.00 | 0.00 | 0.00 | 92 | 1018.2 |
| 20260503071835 | 2 | 347 | 0.0 | 0.0 | 0.00 | 0.00 | 0.00 | 92 | 1018.3 |
| 20260503071334 | 2 | 347 | 0.0 | 0.0 | 0.00 | 0.00 | 0.00 | 92 | 1018.2 |
| 20260503070834 | 2 | 347 | 0.0 | 0.0 | 0.00 | 0.00 | 0.00 | 92 | 1018.3 |
| 20260503070333 | 2 | 347 | 0.0 | 0.0 | 0.00 | 0.00 | 0.00 | 92 | 1018.2 |
| 20260503060323 | 3 | 347 | 0.0 | 0.0 | 0.00 | 0.00 | 0.00 | 90 | 1018.6 |
| 20260503054821 | 3 | 347 | 0.0 | 0.0 | 0.00 | 0.00 | 0.00 | 87 | 1018.7 |
| 20260503054321 | 3 | 347 | 0.0 | 0.0 | 0.00 | 0.00 | 0.00 | 87 | 1018.7 |
| 20260503053820 | 3 | 347 | 0.0 | 0.0 | 0.00 | 0.00 | 0.00 | 88 | 1018.7 |
| 20260503053320 | 3 | 347 | 0.0 | 0.0 | 0.00 | 0.00 | 0.00 | 86 | 1018.8 |
| 20260503052819 | 3 | 347 | 0.0 | 0.0 | 0.00 | 0.00 | 0.00 | 86 | 1018.8 |
| 20260503052319 | 3 | 347 | 0.0 | 0.0 | 0.00 | 0.00 | 0.00 | 86 | 1018.7 |
| 20260503051818 | 3 | 347 | 0.0 | 0.0 | 0.00 | 0.00 | 0.00 | 86 | 1018.7 |
| 20260503051318 | 3 | 347 | 0.0 | 0.0 | 0.00 | 0.00 | 0.00 | 86 | 1018.7 |
| 20260503050817 | 3 | 347 | 0.0 | 0.0 | 0.00 | 0.00 | 0.00 | 86 | 1018.7 |
| 20260503050317 | 3 | 347 | 0.0 | 0.0 | 0.00 | 0.00 | 0.00 | 84 | 1018.8 |
| 20260503045816 | 3 | 347 | 0.0 | 0.0 | 0.00 | 0.00 | 0.00 | 84 | 1018.7 |
| 20260503045316 | 3 | 347 | 0.0 | 0.0 | 0.00 | 0.05 | 0.00 | 85 | 1018.7 |
| 20260503044815 | 3 | 347 | 0.0 | 0.0 | 0.00 | 0.05 | 0.00 | 83 | 1018.7 |
| 20260503044315 | 3 | 347 | 0.0 | 0.0 | 0.00 | 0.05 | 0.00 | 83 | 1018.7 |
| 20260503043814 | 3 | 347 | 0.0 | 0.0 | 0.00 | 0.05 | 0.00 | 83 | 1018.7 |
| 20260503043314 | 3 | 347 | 0.0 | 0.0 | 0.00 | 0.05 | 0.00 | 83 | 1018.7 |
| 20260503042813 | 3 | 347 | 0.0 | 0.0 | 0.00 | 0.05 | 0.00 | 82 | 1018.7 |
| 20260503042312 | 3 | 347 | 0.0 | 0.0 | 0.00 | 0.05 | 0.00 | 82 | 1018.8 |
| 20260503041311 | 3 | 347 | 0.0 | 0.0 | 0.00 | 0.05 | 0.00 | 80 | 1018.7 |
| 20260503040811 | 3 | 347 | 0.0 | 0.0 | 0.00 | 0.05 | 0.00 | 78 | 1018.7 |
| 20260503040310 | 3 | 347 | 0.0 | 0.0 | 0.00 | 0.05 | 0.00 | 78 | 1018.8 |
| 20260503035810 | 4 | 347 | 0.0 | 0.0 | 0.00 | 0.05 | 0.00 | 78 | 1018.7 |
| 20260503035309 | 4 | 347 | 0.0 | 0.0 | 0.00 | 0.05 | 0.00 | 77 | 1018.7 |
| 20260503034809 | 4 | 347 | 0.0 | 0.0 | 0.00 | 0.05 | 0.00 | 76 | 1018.7 |
| 20260503034308 | 4 | 347 | 0.0 | 0.0 | 0.00 | 0.05 | 0.00 | 76 | 1018.7 |
| 20260503033808 | 4 | 347 | 0.0 | 0.0 | 0.00 | 0.05 | 0.00 | 74 | 1018.6 |
| 20260503033307 | 4 | 347 | 0.0 | 0.0 | 0.00 | 0.05 | 0.00 | 74 | 1018.6 |
| 20260503032808 | 4 | 347 | 0.0 | 0.0 | 0.00 | 0.05 | 0.00 | 74 | 1018.6 |
| 20260503032306 | 4 | 347 | 0.0 | 0.0 | 0.00 | 0.05 | 0.00 | 73 | 1018.7 |
| 20260503031805 | 4 | 347 | 0.0 | 0.0 | 0.00 | 0.05 | 0.00 | 73 | 1018.6 |
| 20260503030804 | 5 | 347 | 0.0 | 0.0 | 0.00 | 0.05 | 0.00 | 74 | 1018.6 |
| 20260503030303 | 5 | 347 | 0.0 | 0.0 | 0.00 | 0.05 | 0.00 | 74 | 1018.7 |
| 20260503025803 | 5 | 347 | 0.0 | 0.0 | 0.00 | 0.05 | 0.00 | 74 | 1018.7 |
| 20260503025304 | 5 | 347 | 0.0 | 0.0 | 0.00 | 0.05 | 0.00 | 74 | 1018.7 |
| 20260503024802 | 5 | 347 | 0.0 | 0.0 | 0.00 | 0.05 | 0.00 | 73 | 1018.6 |
| 20260503024301 | 5 | 347 | 0.0 | 0.0 | 0.00 | 0.05 | 0.00 | 73 | 1018.7 |
| 20260503023801 | 5 | 347 | 0.0 | 0.0 | 0.00 | 0.05 | 0.00 | 72 | 1018.8 |
| 20260503023300 | 5 | 347 | 0.0 | 0.0 | 0.00 | 0.05 | 0.00 | 72 | 1018.7 |
| 20260503022759 | 5 | 347 | 0.0 | 0.0 | 0.00 | 0.05 | 0.00 | 72 | 1018.7 |
| 20260503022259 | 5 | 347 | 0.0 | 0.0 | 0.00 | 0.05 | 0.00 | 72 | 1018.7 |
| 20260503021758 | 5 | 347 | 0.0 | 0.0 | 0.00 | 0.05 | 0.00 | 72 | 1018.7 |
| 20260503021258 | 5 | 347 | 0.0 | 0.0 | 0.00 | 0.05 | 0.00 | 71 | 1018.7 |
| 20260503020757 | 6 | 347 | 0.0 | 0.0 | 0.00 | 0.05 | 0.00 | 70 | 1018.7 |
| 20260503020257 | 6 | 347 | 0.0 | 0.0 | 0.00 | 0.05 | 0.00 | 70 | 1018.6 |
| 20260503015755 | 6 | 347 | 0.0 | 0.0 | 0.00 | 0.05 | 0.00 | 69 | 1018.6 |
| 20260503015255 | 6 | 347 | 0.0 | 0.0 | 0.00 | 0.05 | 0.00 | 68 | 1018.4 |
| 20260503014754 | 6 | 347 | 0.0 | 0.0 | 0.00 | 0.05 | 0.00 | 68 | 1018.4 |
| 20260503014254 | 6 | 347 | 0.0 | 0.0 | 0.00 | 0.05 | 0.00 | 67 | 1018.4 |
| 20260503013753 | 6 | 347 | 0.0 | 0.0 | 0.00 | 0.05 | 0.00 | 65 | 1018.4 |
| 20260503013253 | 7 | 347 | 0.0 | 0.0 | 0.00 | 0.05 | 0.00 | 64 | 1018.3 |
| 20260503012752 | 7 | 347 | 0.0 | 0.0 | 0.00 | 0.05 | 0.00 | 63 | 1018.3 |
| 20260503012252 | 7 | 347 | 0.0 | 0.0 | 0.00 | 0.05 | 0.00 | 61 | 1018.3 |
| 20260503011751 | 7 | 347 | 0.0 | 0.0 | 0.00 | 0.05 | 0.00 | 59 | 1018.2 |
| 20260503011251 | 7 | 347 | 0.0 | 0.0 | 0.00 | 0.05 | 0.00 | 58 | 1018.1 |
| 20260503010749 | 8 | 347 | 0.0 | 0.0 | 0.00 | 0.05 | 0.00 | 57 | 1018.1 |
| 20260503010249 | 8 | 347 | 0.0 | 0.0 | 0.00 | 0.05 | 0.00 | 56 | 1018.0 |
| 20260503005748 | 8 | 347 | 0.0 | 0.0 | 0.00 | 0.05 | 0.00 | 54 | 1018.0 |
| 20260503004747 | 8 | 347 | 0.0 | 0.0 | 0.00 | 0.05 | 0.00 | 53 | 1017.9 |
| 20260503004246 | 8 | 347 | 0.0 | 0.0 | 0.00 | 0.05 | 0.00 | 52 | 1017.8 |
| 20260503003746 | 8 | 347 | 0.0 | 6.4 | 0.00 | 0.05 | 0.00 | 52 | 1017.9 |
| 20260503003245 | 8 | 48 | 3.2 | 8.0 | 0.00 | 0.05 | 0.00 | 51 | 1017.9 |
| 20260503002745 | 8 | 359 | 0.0 | 8.0 | 0.00 | 0.05 | 0.00 | 51 | 1017.9 |
| 20260503002244 | 9 | 6 | 3.2 | 17.7 | 0.00 | 0.05 | 0.00 | 50 | 1017.8 |
| 20260503001744 | 9 | 18 | 9.7 | 16.1 | 0.00 | 0.05 | 0.00 | 50 | 1017.8 |
| 20260503001243 | 9 | 314 | 3.2 | 14.5 | 0.00 | 0.05 | 0.00 | 49 | 1017.8 |
| 20260503000743 | 9 | 322 | 8.0 | 14.5 | 0.00 | 0.05 | 0.00 | 49 | 1017.7 |
| 20260503000242 | 9 | 336 | 9.7 | 14.5 | 0.00 | 0.05 | 0.00 | 49 | 1017.7 |
| 20260502235742 | 9 | 346 | 4.8 | 14.5 | 0.00 | 0.05 | 0.00 | 49 | 1017.6 |
| 20260502235241 | 9 | 314 | 6.4 | 19.3 | 0.00 | 0.05 | 0.00 | 49 | 1017.6 |
| 20260502234741 | 9 | 346 | 9.7 | 19.3 | 0.00 | 0.05 | 0.00 | 49 | 1017.6 |
| 20260502233740 | 9 | 356 | 9.7 | 19.3 | 0.00 | 0.05 | 0.00 | 47 | 1017.6 |
| 20260502232739 | 10 | 311 | 9.7 | 14.5 | 0.00 | 0.05 | 0.00 | 46 | 1017.5 |
| 20260502232237 | 10 | 326 | 4.8 | 16.1 | 0.00 | 0.05 | 0.00 | 46 | 1017.5 |
| 20260502231736 | 10 | 312 | 8.0 | 24.1 | 0.00 | 0.05 | 0.00 | 46 | 1017.5 |
| 20260502231236 | 10 | 359 | 16.1 | 20.9 | 0.00 | 0.05 | 0.00 | 46 | 1017.5 |
| 20260502230735 | 10 | 69 | 8.0 | 17.7 | 0.00 | 0.05 | 0.00 | 45 | 1017.6 |
| 20260502230235 | 10 | 329 | 11.3 | 22.5 | 0.00 | 0.05 | 0.00 | 45 | 1017.4 |
| 20260502225735 | 10 | 336 | 11.3 | 22.5 | 0.00 | 0.05 | 0.00 | 45 | 1017.4 |
| 20260502225234 | 10 | 295 | 11.3 | 20.9 | 0.00 | 0.05 | 0.00 | 43 | 1017.4 |
| 20260502224733 | 10 | 311 | 14.5 | 19.3 | 0.00 | 0.05 | 0.00 | 44 | 1017.4 |
| 20260502224233 | 10 | 354 | 9.7 | 19.3 | 0.00 | 0.05 | 0.00 | 44 | 1017.3 |
| 20260502223732 | 10 | 335 | 11.3 | 16.1 | 0.00 | 0.05 | 0.00 | 44 | 1017.3 |
| 20260502223232 | 10 | 302 | 8.0 | 16.1 | 0.00 | 0.05 | 0.00 | 43 | 1017.2 |
| 20260502222731 | 10 | 353 | 8.0 | 17.7 | 0.00 | 0.05 | 0.00 | 43 | 1017.3 |
| 20260502222231 | 10 | 325 | 8.0 | 20.9 | 0.00 | 0.05 | 0.00 | 43 | 1017.3 |
| 20260502221730 | 10 | 339 | 16.1 | 29.0 | 0.00 | 0.05 | 0.00 | 43 | 1017.3 |
| 20260502221230 | 11 | 257 | 8.0 | 19.3 | 0.00 | 0.05 | 0.00 | 42 | 1017.2 |
| 20260502220729 | 10 | 329 | 11.3 | 19.3 | 0.00 | 0.05 | 0.00 | 41 | 1017.2 |
| 20260502220229 | 10 | 340 | 14.5 | 14.5 | 0.00 | 0.05 | 0.00 | 42 | 1017.1 |
| 20260502215728 | 10 | 307 | 11.3 | 19.3 | 0.00 | 0.05 | 0.00 | 43 | 1017.1 |
| 20260502215228 | 10 | 326 | 12.9 | 22.5 | 0.00 | 0.05 | 0.00 | 42 | 1017.1 |
| 20260502214727 | 10 | 285 | 9.7 | 17.7 | 0.00 | 0.05 | 0.00 | 42 | 1017.0 |
| 20260502214227 | 11 | 302 | 11.3 | 12.9 | 0.00 | 0.05 | 0.00 | 41 | 1017.0 |
| 20260502213726 | 10 | 277 | 8.0 | 22.5 | 0.00 | 0.05 | 0.00 | 42 | 1017.0 |
| 20260502213226 | 10 | 339 | 14.5 | 24.1 | 0.00 | 0.05 | 0.00 | 42 | 1017.0 |
| 20260502212725 | 11 | 311 | 6.4 | 12.9 | 0.00 | 0.05 | 0.00 | 42 | 1016.9 |
| 20260502212224 | 10 | 336 | 9.7 | 14.5 | 0.00 | 0.05 | 0.00 | 42 | 1017.0 |
| 20260502211723 | 10 | 328 | 4.8 | 12.9 | 0.00 | 0.05 | 0.00 | 42 | 1017.0 |
| 20260502211222 | 10 | 32 | 9.7 | 22.5 | 0.00 | 0.05 | 0.00 | 42 | 1016.9 |
| 20260502210221 | 10 | 350 | 9.7 | 24.1 | 0.00 | 0.05 | 0.00 | 42 | 1016.9 |
| 20260502205721 | 10 | 270 | 16.1 | 24.1 | 0.00 | 0.05 | 0.00 | 42 | 1016.9 |
| 20260502205220 | 10 | 318 | 11.3 | 17.7 | 0.00 | 0.05 | 0.00 | 41 | 1016.9 |
| 20260502204720 | 10 | 277 | 12.9 | 24.1 | 0.00 | 0.05 | 0.00 | 41 | 1016.9 |
| 20260502204219 | 10 | 323 | 9.7 | 25.7 | 0.00 | 0.05 | 0.00 | 41 | 1016.8 |
| 20260502203719 | 10 | 311 | 19.3 | 17.7 | 0.00 | 0.05 | 0.00 | 41 | 1016.9 |
| 20260502203218 | 10 | 329 | 9.7 | 22.5 | 0.00 | 0.05 | 0.00 | 39 | 1016.9 |
| 20260502202718 | 10 | 322 | 16.1 | 22.5 | 0.00 | 0.05 | 0.00 | 40 | 1017.0 |
| 20260502202217 | 10 | 333 | 9.7 | 16.1 | 0.00 | 0.05 | 0.00 | 41 | 1017.0 |
| 20260502201717 | 10 | 350 | 9.7 | 20.9 | 0.00 | 0.05 | 0.00 | 41 | 1017.1 |
| 20260502201216 | 10 | 314 | 11.3 | 20.9 | 0.00 | 0.05 | 0.00 | 40 | 1017.2 |
| 20260502200716 | 10 | 297 | 11.3 | 17.7 | 0.00 | 0.05 | 0.00 | 40 | 1017.1 |
| 20260502195713 | 10 | 359 | 17.7 | 24.1 | 0.00 | 0.05 | 0.00 | 41 | 1017.3 |
| 20260502195212 | 10 | 347 | 12.9 | 29.0 | 0.00 | 0.05 | 0.00 | 41 | 1017.2 |
| 20260502194711 | 10 | 309 | 17.7 | 22.5 | 0.00 | 0.05 | 0.00 | 40 | 1017.2 |
| 20260502193710 | 10 | 342 | 9.7 | 25.7 | 0.00 | 0.05 | 0.00 | 41 | 1017.3 |
| 20260502193210 | 11 | 285 | 11.3 | 22.5 | 0.00 | 0.05 | 0.00 | 41 | 1017.2 |
| 20260502192209 | 10 | 288 | 14.5 | 22.5 | 0.00 | 0.05 | 0.00 | 43 | 1017.2 |
| 20260502191708 | 10 | 314 | 3.2 | 24.1 | 0.00 | 0.05 | 0.00 | 41 | 1017.3 |
| 20260502191208 | 10 | 17 | 14.5 | 24.1 | 0.00 | 0.05 | 0.00 | 41 | 1017.5 |
| 20260502190707 | 10 | 335 | 12.9 | 27.4 | 0.00 | 0.05 | 0.00 | 42 | 1017.5 |
| 20260502190207 | 10 | 262 | 16.1 | 24.1 | 0.00 | 0.05 | 0.00 | 42 | 1017.5 |
| 20260502185706 | 10 | 333 | 12.9 | 27.4 | 0.00 | 0.05 | 0.00 | 43 | 1017.5 |
| 20260502185206 | 10 | 277 | 8.0 | 20.9 | 0.00 | 0.05 | 0.00 | 40 | 1017.6 |
| 20260502184705 | 10 | 276 | 11.3 | 32.2 | 0.00 | 0.05 | 0.00 | 41 | 1017.7 |
| 20260502184205 | 10 | 271 | 22.5 | 30.6 | 0.00 | 0.05 | 0.00 | 41 | 1017.6 |
| 20260502183704 | 10 | 24 | 9.7 | 32.2 | 0.00 | 0.05 | 0.00 | 40 | 1017.7 |
| 20260502183204 | 10 | 305 | 9.7 | 27.4 | 0.00 | 0.05 | 0.00 | 42 | 1017.7 |
| 20260502182203 | 10 | 295 | 16.1 | 24.1 | 0.00 | 0.05 | 0.00 | 42 | 1017.7 |
| 20260502181702 | 10 | 250 | 12.9 | 27.4 | 0.00 | 0.05 | 0.00 | 41 | 1017.8 |
| 20260502181200 | 10 | 255 | 12.9 | 24.1 | 0.00 | 0.05 | 0.00 | 42 | 1017.8 |
| 20260502180700 | 10 | 314 | 12.9 | 22.5 | 0.00 | 0.05 | 0.00 | 42 | 1017.8 |
| 20260502180159 | 10 | 321 | 14.5 | 24.1 | 0.00 | 0.05 | 0.00 | 41 | 1017.8 |